When you browse on this site, cookies collect data to enhance your experience and personalize the content and advertising you see.
Visit our Privacy Policy to learn more. By continuing to use the site, you agree to this use of cookies and data.
  • In Deutschland
  • Länderverzeichnis
  • Für 7 Tage
  • Wassertemperatur
  • Wetterkarte
  • Widgets
  • user-avatar
    Anmelden

    Stündliche Wetter Perth

    Heute, 20 Januar, Montag

    Zeit Temperatur Niederschläge Wind Luftdruck Luftfeuchtigkeit
    00:00 +20°C° 0 mm 3 m/S 757 mmHg 58%
    01:00 +20°C° 0 mm 2 m/S 757 mmHg 56%
    02:00 +19°C° 0 mm 2 m/S 757 mmHg 58%
    03:00 +19°C° 0 mm 2 m/S 757 mmHg 57%
    04:00 +19°C° 0 mm 2 m/S 757 mmHg 56%
    05:00 +18°C° 0 mm 2 m/S 757 mmHg 55%
    06:00 +20°C° 0 mm 2 m/S 757 mmHg 50%
    07:00 +23°C° 0 mm 2 m/S 757 mmHg 44%
    08:00 +25°C° 0 mm 2 m/S 758 mmHg 41%
    09:00 +27°C° 0 mm 2 m/S 757 mmHg 38%
    10:00 +29°C° 0 mm 3 m/S 757 mmHg 35%
    11:00 +33°C° 0 mm 3 m/S 757 mmHg 32%
    12:00 +33°C° 0 mm 4 m/S 756 mmHg 33%
    13:00 +33°C° 0 mm 5 m/S 755 mmHg 34%
    14:00 +32°C° 0 mm 5 m/S 756 mmHg 34%
    15:00 +32°C° 0 mm 6 m/S 755 mmHg 36%
    16:00 +30°C° 0 mm 6 m/S 755 mmHg 39%
    17:00 +29°C° 0 mm 7 m/S 755 mmHg 42%
    18:00 +27°C° 0 mm 6 m/S 755 mmHg 49%
    19:00 +24°C° 0 mm 6 m/S 756 mmHg 57%
    20:00 +22°C° 0 mm 5 m/S 756 mmHg 68%
    21:00 +22°C° 0 mm 5 m/S 756 mmHg 71%
    22:00 +21°C° 0 mm 5 m/S 757 mmHg 73%
    23:00 +21°C° 0 mm 5 m/S 757 mmHg 76%

    Morgen, 21 Januar, Dienstag

    Zeit Temperatur Niederschläge Wind Luftdruck Luftfeuchtigkeit
    00:00 +20°C° 0 mm 5 m/S 757 mmHg 78%
    01:00 +19°C° 0 mm 4 m/S 757 mmHg 79%
    02:00 +18°C° 0 mm 4 m/S 757 mmHg 81%
    03:00 +17°C° 0 mm 4 m/S 757 mmHg 81%
    04:00 +17°C° 0 mm 4 m/S 757 mmHg 82%
    05:00 +17°C° 0 mm 4 m/S 757 mmHg 83%
    06:00 +18°C° 0 mm 4 m/S 758 mmHg 80%
    07:00 +19°C° 0 mm 4 m/S 758 mmHg 77%
    08:00 +20°C° 0 mm 4 m/S 758 mmHg 74%
    09:00 +21°C° 0 mm 4 m/S 758 mmHg 70%
    10:00 +22°C° 0 mm 5 m/S 758 mmHg 67%
    11:00 +23°C° 0 mm 5 m/S 757 mmHg 64%
    12:00 +24°C° 0 mm 6 m/S 757 mmHg 61%
    13:00 +26°C° 0 mm 6 m/S 757 mmHg 58%
    14:00 +26°C° 0 mm 7 m/S 756 mmHg 55%
    15:00 +26°C° 0 mm 7 m/S 756 mmHg 55%
    16:00 +24°C° 0 mm 7 m/S 756 mmHg 55%
    17:00 +24°C° 0 mm 7 m/S 756 mmHg 55%
    18:00 +23°C° 0 mm 7 m/S 756 mmHg 59%
    19:00 +21°C° 0 mm 7 m/S 757 mmHg 63%
    20:00 +20°C° 0 mm 6 m/S 757 mmHg 68%
    21:00 +19°C° 0 mm 6 m/S 758 mmHg 66%
    22:00 +19°C° 0 mm 6 m/S 758 mmHg 64%
    23:00 +17°C° 0 mm 6 m/S 759 mmHg 62%

    übermorgen, 22 Januar, Mittwoch

    Zeit Temperatur Niederschläge Wind Luftdruck Luftfeuchtigkeit
    00:00 +16°C° 0 mm 5 m/S 759 mmHg 65%
    01:00 +15°C° 0 mm 5 m/S 759 mmHg 67%
    02:00 +14°C° 0 mm 4 m/S 759 mmHg 70%
    03:00 +14°C° 0 mm 4 m/S 759 mmHg 72%
    04:00 +13°C° 0 mm 4 m/S 760 mmHg 73%
    05:00 +13°C° 0 mm 4 m/S 760 mmHg 75%
    06:00 +14°C° 0 mm 4 m/S 760 mmHg 69%
    07:00 +17°C° 0 mm 4 m/S 761 mmHg 63%
    08:00 +17°C° 0 mm 5 m/S 761 mmHg 57%
    09:00 +20°C° 0 mm 5 m/S 761 mmHg 53%
    10:00 +22°C° 0 mm 5 m/S 760 mmHg 49%
    11:00 +25°C° 0 mm 5 m/S 760 mmHg 45%
    12:00 +24°C° 0 mm 6 m/S 760 mmHg 46%
    13:00 +24°C° 0 mm 6 m/S 759 mmHg 47%
    14:00 +26°C° 0 mm 7 m/S 759 mmHg 49%
    15:00 +24°C° 0 mm 7 m/S 759 mmHg 51%
    16:00 +24°C° 0 mm 7 m/S 759 mmHg 54%
    17:00 +23°C° 0 mm 7 m/S 759 mmHg 57%
    18:00 +22°C° 0 mm 7 m/S 759 mmHg 62%
    19:00 +21°C° 0 mm 7 m/S 759 mmHg 66%
    20:00 +20°C° 0 mm 6 m/S 760 mmHg 71%
    21:00 +20°C° 0 mm 6 m/S 760 mmHg 72%
    22:00 +20°C° 0 mm 5 m/S 761 mmHg 72%
    23:00 +19°C° 0 mm 4 m/S 761 mmHg 72%

    23 Januar, Donnerstag

    Zeit Temperatur Niederschläge Wind Luftdruck Luftfeuchtigkeit
    00:00 +19°C° 0 mm 4 m/S 761 mmHg 74%
    01:00 +18°C° 0 mm 4 m/S 761 mmHg 75%
    02:00 +18°C° 0 mm 4 m/S 760 mmHg 77%
    03:00 +17°C° 0 mm 3 m/S 761 mmHg 79%
    04:00 +17°C° 0 mm 3 m/S 761 mmHg 81%
    05:00 +17°C° 0 mm 3 m/S 761 mmHg 83%
    06:00 +18°C° 0 mm 3 m/S 761 mmHg 77%
    07:00 +19°C° 0 mm 3 m/S 761 mmHg 70%
    08:00 +21°C° 0 mm 3 m/S 761 mmHg 63%
    09:00 +24°C° 0 mm 3 m/S 761 mmHg 57%
    10:00 +26°C° 0 mm 3 m/S 761 mmHg 50%
    11:00 +28°C° 0 mm 3 m/S 761 mmHg 43%
    12:00 +28°C° 0 mm 4 m/S 760 mmHg 44%
    13:00 +28°C° 0 mm 5 m/S 760 mmHg 45%
    14:00 +28°C° 0 mm 6 m/S 759 mmHg 47%
    15:00 +28°C° 0 mm 6 m/S 759 mmHg 50%
    16:00 +27°C° 0 mm 6 m/S 759 mmHg 53%
    17:00 +26°C° 0 mm 6 m/S 759 mmHg 56%
    18:00 +24°C° 0 mm 6 m/S 759 mmHg 62%
    19:00 +22°C° 0 mm 5 m/S 759 mmHg 68%
    20:00 +21°C° 0 mm 4 m/S 759 mmHg 74%
    21:00 +21°C° 0 mm 4 m/S 760 mmHg 74%
    22:00 +20°C° 0 mm 4 m/S 760 mmHg 73%
    23:00 +20°C° 0 mm 3 m/S 760 mmHg 73%

    24 Januar, Freitag

    Zeit Temperatur Niederschläge Wind Luftdruck Luftfeuchtigkeit
    00:00 +20°C° 0 mm 3 m/S 760 mmHg 69%
    01:00 +20°C° 0 mm 3 m/S 760 mmHg 65%
    02:00 +20°C° 0 mm 3 m/S 760 mmHg 62%
    03:00 +19°C° 0 mm 3 m/S 760 mmHg 66%
    04:00 +19°C° 0 mm 3 m/S 760 mmHg 71%
    05:00 +18°C° 0 mm 3 m/S 760 mmHg 75%
    06:00 +20°C° 0 mm 3 m/S 760 mmHg 69%
    07:00 +21°C° 0 mm 3 m/S 761 mmHg 64%
    08:00 +22°C° 0 mm 3 m/S 761 mmHg 58%
    09:00 +26°C° 0 mm 2 m/S 761 mmHg 50%
    10:00 +30°C° 0 mm 2 m/S 760 mmHg 42%
    11:00 +34°C° 0 mm 2 m/S 760 mmHg 34%
    12:00 +34°C° 0 mm 3 m/S 760 mmHg 34%
    13:00 +34°C° 0 mm 4 m/S 759 mmHg 35%
    14:00 +34°C° 0 mm 5 m/S 758 mmHg 35%
    15:00 +33°C° 0 mm 6 m/S 758 mmHg 36%
    16:00 +32°C° 0 mm 6 m/S 758 mmHg 38%
    17:00 +30°C° 0 mm 7 m/S 758 mmHg 39%
    18:00 +28°C° 0 mm 6 m/S 758 mmHg 46%
    19:00 +26°C° 0 mm 5 m/S 758 mmHg 52%
    20:00 +23°C° 0 mm 4 m/S 758 mmHg 59%
    21:00 +22°C° 0 mm 4 m/S 759 mmHg 65%
    22:00 +22°C° 0 mm 4 m/S 759 mmHg 71%
    23:00 +21°C° 0 mm 4 m/S 759 mmHg 77%

    25 Januar, Samstag

    Zeit Temperatur Niederschläge Wind Luftdruck Luftfeuchtigkeit
    00:00 +21°C° 0 mm 3 m/S 759 mmHg 74%
    01:00 +21°C° 0 mm 3 m/S 759 mmHg 71%
    02:00 +21°C° 0 mm 3 m/S 758 mmHg 67%
    03:00 +21°C° 0 mm 3 m/S 758 mmHg 71%
    04:00 +20°C° 0 mm 3 m/S 758 mmHg 75%
    05:00 +20°C° 0 mm 3 m/S 758 mmHg 79%
    06:00 +21°C° 0 mm 3 m/S 759 mmHg 74%
    07:00 +22°C° 0 mm 3 m/S 759 mmHg 69%
    08:00 +24°C° 0 mm 3 m/S 759 mmHg 64%
    09:00 +27°C° 0 mm 3 m/S 759 mmHg 54%
    10:00 +29°C° 0 mm 3 m/S 758 mmHg 45%
    11:00 +33°C° 0 mm 3 m/S 758 mmHg 36%
    12:00 +34°C° 0 mm 4 m/S 757 mmHg 37%
    13:00 +34°C° 0 mm 5 m/S 757 mmHg 37%
    14:00 +35°C° 0 mm 6 m/S 756 mmHg 37%
    15:00 +34°C° 0 mm 6 m/S 756 mmHg 38%
    16:00 +33°C° 0 mm 6 m/S 755 mmHg 39%
    17:00 +32°C° 0 mm 6 m/S 755 mmHg 39%
    18:00 +29°C° 0 mm 5 m/S 755 mmHg 47%
    19:00 +28°C° 0 mm 5 m/S 756 mmHg 54%
    20:00 +26°C° 0 mm 4 m/S 756 mmHg 62%
    21:00 +26°C° 0 mm 4 m/S 756 mmHg 60%
    22:00 +26°C° 0 mm 4 m/S 757 mmHg 58%
    23:00 +26°C° 0 mm 4 m/S 757 mmHg 57%
    Mehr zeigen